Vorticity
nan nan nan nan nan nan nan nan nan nan nan nan nan nan nan nan nan nan nan nan nan nan nan nan nan nan nan nan nan nan nan nan nan nan nan nan nan nan nan nan nan nan nan nan nan
nan 7 8 7 7 7 7 7 7 7 7 8 8 8 8 12 17 9 12 18 11 1 3 5 7 7 9 8 9 4 9 14 10 10 12 8 7 3 7 9 11 10 8 8 nan
nan 6 6 7 7 7 7 7 7 7 7 8 8 8 9 11 15 17 15 7 4 7 2 -0 1 11 11 9 11 10 3 5 11 15 5 7 10 10 4 6 8 6 6 4 nan
nan 6 6 6 7 7 7 7 7 7 8 8 9 9 14 10 9 17 15 3 5 2 3 7 12 8 9 8 9 9 11 8 11 5 4 8 9 12 7 9 8 6 4 4 nan
nan 7 7 6 6 8 8 8 7 7 8 8 9 12 13 9 13 15 12 3 4 4 7 1 -1 8 5 9 14 7 3 8 7 10 9 7 10 13 11 9 6 6 4 6 nan
nan 7 8 8 8 7 8 8 8 8 8 9 9 13 9 4 22 14 8 4 0 2 0 4 0 -1 -1 8 7 6 12 7 4 5 9 5 9 7 8 6 6 4 4 6 nan
nan 8 8 8 9 8 8 8 8 9 10 10 12 12 9 14 11 8 1 3 8 0 -0 -1 2 -2 3 6 7 7 4 8 15 5 3 9 8 10 9 6 6 5 5 8 nan
nan 8 8 8 9 9 9 9 9 10 12 14 12 10 5 18 12 6 2 5 7 1 5 5 0 5 11 5 6 7 4 13 11 1 6 15 12 12 7 6 5 5 7 9 nan
nan 8 8 8 9 10 9 12 19 18 16 11 8 8 8 9 9 8 6 3 7 11 10 8 8 10 7 8 3 7 8 6 7 3 7 7 10 5 6 6 7 8 9 7 nan
nan 8 8 8 9 10 19 25 15 18 17 7 4 6 11 8 8 8 7 6 3 7 10 13 11 4 2 11 4 6 6 10 10 2 8 1 6 11 9 5 6 9 9 8 nan
nan 8 8 8 9 12 20 20 13 11 10 9 3 -2 2 10 6 6 11 7 6 6 6 6 9 12 13 2 8 9 6 9 8 8 7 10 11 16 7 5 7 5 6 9 nan
nan 8 8 8 11 24 17 2 6 6 11 12 3 1 3 7 8 15 13 5 6 5 2 10 8 8 8 6 7 6 18 19 11 6 1 14 11 13 8 8 7 4 7 7 nan
nan 8 8 8 30 28 7 5 3 11 13 16 19 11 12 7 8 16 6 6 5 4 6 8 3 5 9 6 8 12 12 13 15 6 5 12 9 10 10 11 9 7 8 7 nan
nan 8 6 24 26 9 7 8 8 13 13 18 19 14 15 7 10 4 6 6 6 8 8 4 5 4 11 9 11 0 7 18 12 4 12 4 14 12 12 10 9 8 9 7 nan
nan 8 18 26 9 5 3 6 11 12 9 17 15 16 19 7 8 8 6 5 8 8 11 7 5 7 9 9 9 6 4 7 9 12 10 2 11 15 13 7 9 10 10 9 nan
nan 8 22 20 10 5 3 9 16 12 8 9 11 12 10 12 9 10 7 8 9 10 10 10 7 9 6 12 10 10 6 8 12 12 9 12 5 13 14 9 7 8 10 10 nan
nan 15 21 11 3 4 16 16 13 3 7 13 9 8 6 8 9 14 11 9 8 6 7 10 12 6 8 8 15 12 7 8 8 14 7 8 18 14 16 11 10 6 8 14 nan
nan 34 25 7 5 5 11 12 10 12 3 -5 7 17 18 12 13 10 8 7 9 6 7 9 9 13 10 8 12 7 10 4 4 5 5 12 14 23 25 15 13 7 9 15 nan
nan 30 10 12 11 7 11 10 8 2 -2 1 11 15 10 10 14 17 14 9 7 6 6 5 5 12 12 13 4 7 7 7 8 10 7 11 3 17 16 14 19 12 9 15 nan
nan 12 16 17 9 8 7 5 -1 1 5 10 11 7 5 7 6 8 16 17 15 11 6 7 12 6 7 17 13 12 3 3 11 14 10 14 10 4 7 9 11 10 7 12 nan
nan 10 17 11 6 8 8 5 5 7 10 10 13 9 9 9 5 7 4 8 15 17 15 10 7 10 13 10 9 5 10 8 10 8 6 9 15 17 11 9 9 7 9 9 nan
nan 13 10 6 9 10 8 9 10 13 11 11 10 8 8 9 11 11 9 5 -1 11 19 19 16 14 7 7 11 11 13 6 -1 5 8 9 12 19 15 10 6 7 10 9 nan
nan 15 11 7 6 9 8 8 8 14 14 11 7 7 10 10 9 8 6 7 8 10 10 11 12 13 15 10 17 12 12 14 8 10 8 5 9 9 8 11 9 8 11 11 nan
nan 10 11 7 4 3 11 8 5 5 6 6 10 9 11 11 9 6 7 8 7 13 12 13 13 8 9 12 7 6 7 13 11 4 13 3 9 11 14 10 7 15 15 10 nan
nan 6 8 6 2 5 11 9 5 9 14 13 11 9 9 8 9 10 11 10 13 16 16 9 7 7 8 8 5 8 8 12 9 6 2 3 6 14 20 5 10 13 9 9 nan
nan 7 6 8 7 10 13 9 7 10 12 11 6 8 14 13 7 4 9 15 12 10 11 10 11 12 8 11 10 6 8 11 19 19 4 8 4 12 6 11 13 16 10 7 nan
nan nan nan nan nan nan nan nan nan nan nan nan nan nan nan nan nan nan nan nan nan nan nan nan nan nan nan nan nan nan nan nan nan nan nan nan nan nan nan nan nan nan nan nan nan
CAPE
3 4 3 3 2 1 1 0 0 0 0 0 0 0 0 0 0 0 0 0 0 1646 1318 765 191 318 75 22 407 108 669 206 169 106 126 90 18 2 46 305 215 126 45 237 517
2 2 3 2 2 1 1 1 1 0 0 0 0 0 0 0 0 0 222 2121 1225 2030 422 189 166 131 139 427 832 202 227 220 194 153 196 207 38 12 324 326 290 265 72 154 312
1 0 1 1 1 1 0 0 0 0 0 0 0 0 0 0 0 0 1831 1575 2198 1385 1 0 1 95 270 165 533 996 3 242 232 252 218 229 285 281 284 306 308 169 78 250 176
0 0 0 0 0 0 0 0 0 0 0 0 0 0 0 0 8 0 2052 1911 2148 39 16 3 2 35 154 771 367 117 33 65 150 232 294 239 226 276 285 202 172 120 99 107 201
0 0 0 0 0 0 0 0 0 0 0 0 0 0 0 0 0 134 2002 1946 610 143 0 1 166 212 343 272 132 116 157 83 49 102 104 76 109 351 273 133 49 86 111 50 75
0 0 0 0 0 0 0 0 0 0 0 0 0 0 0 0 0 95 60 268 556 834 530 0 371 422 34 268 152 56 168 131 83 94 62 16 144 409 286 126 84 80 86 91 109
0 0 0 0 0 0 0 0 0 0 0 0 0 0 0 0 0 0 134 85 156 346 902 79 442 264 25 315 166 220 187 227 269 322 203 170 142 247 198 152 159 129 74 81 45
0 0 0 0 0 0 0 0 0 0 0 0 0 0 0 0 116 110 274 277 442 784 365 271 192 115 1 172 110 160 227 250 280 370 156 303 66 275 184 139 153 185 226 184 103
0 0 0 0 0 0 0 0 0 0 0 0 0 0 0 0 0 243 312 317 159 181 82 198 138 172 1 42 132 70 123 260 494 270 342 407 112 190 171 156 173 169 318 326 170
0 0 0 0 0 0 0 0 0 0 0 0 0 0 0 0 0 0 22 85 68 16 0 0 24 84 3 30 39 241 145 153 411 326 65 57 287 94 147 209 259 376 334 480 430
0 0 0 0 0 0 0 0 0 0 0 0 0 0 0 0 0 0 0 18 35 17 0 0 0 0 23 15 95 94 240 196 481 270 85 0 77 110 12 210 260 255 284 511 627
0 0 0 0 0 0 0 0 0 0 0 0 0 0 0 0 0 0 0 0 1 4 0 0 0 0 9 10 0 0 1 189 179 261 182 0 10 148 32 120 184 246 261 450 416
0 0 0 0 0 0 0 0 0 0 0 0 0 0 0 0 0 0 0 0 0 0 0 0 0 3 3 0 0 0 1 30 4 39 36 2 276 262 129 54 128 164 232 329 379
0 0 0 0 0 0 0 0 0 0 0 0 0 0 0 0 0 0 0 0 0 0 0 0 0 0 0 0 1 0 0 0 1 0 0 0 68 173 74 88 65 31 77 192 166
0 0 0 0 0 0 0 0 0 0 0 0 0 0 0 0 0 0 0 0 0 0 0 0 0 0 0 0 1 0 0 0 0 0 0 0 0 143 114 151 74 25 20 9 120
0 0 0 0 0 0 0 0 0 0 0 0 0 0 0 0 0 0 0 0 0 0 0 0 0 0 0 0 0 0 0 0 0 0 0 0 0 0 203 237 86 71 55 22 25
0 0 0 0 0 0 0 0 0 0 0 0 0 0 0 0 0 0 0 0 0 0 0 0 0 0 0 0 0 0 0 0 0 0 0 0 0 5 60 186 170 149 64 63 30
0 0 0 0 0 0 0 0 0 0 0 0 0 0 0 0 0 0 0 0 0 0 0 0 0 0 0 0 0 0 0 0 0 0 0 0 0 0 9 28 202 164 31 70 116
0 0 0 0 0 0 0 0 0 0 0 0 0 0 0 0 0 0 0 0 0 0 0 0 0 0 0 0 0 0 0 0 0 0 0 0 0 0 0 0 0 70 26 72 181
0 0 0 0 0 0 0 0 0 0 0 0 0 0 0 0 0 0 0 0 0 0 0 0 0 0 0 0 0 0 0 0 0 0 3 0 3 0 0 0 0 7 0 9 14
0 0 0 0 0 0 0 0 0 0 0 0 0 0 0 0 0 0 0 0 0 0 0 0 0 0 0 0 0 0 0 0 0 0 0 0 0 0 0 0 0 0 0 0 0
0 0 0 0 0 0 0 0 0 0 0 0 0 0 0 0 0 0 0 0 0 0 0 0 0 0 0 0 0 0 0 0 0 0 0 0 0 1 9 0 0 0 0 0 0
0 0 0 0 0 0 0 0 0 0 0 0 0 0 0 0 0 0 0 0 0 0 0 0 0 0 0 0 0 0 0 0 0 0 0 0 0 0 0 0 0 0 0 0 0
0 0 0 0 0 0 0 0 0 0 0 0 0 0 0 0 0 0 0 0 0 0 177 0 0 0 0 0 0 0 0 0 0 0 0 0 0 0 8 0 0 0 0 0 0
0 0 0 0 0 0 0 0 0 0 0 0 0 0 0 0 0 0 0 0 0 0 0 0 0 0 0 0 0 0 0 0 0 0 0 0 0 0 26 46 55 48 16 0 0
0 0 0 0 0 0 0 0 0 0 0 0 0 0 0 0 0 0 0 0 0 0 0 0 0 0 0 0 0 0 0 0 0 0 0 0 0 0 0 0 100 168 89 0 5
0 0 0 0 0 0 0 0 0 0 0 0 0 0 0 0 0 0 0 0 0 0 0 0 0 0 0 0 0 0 0 0 0 0 0 0 0 0 0 0 16 380 321 68 38